Vertical_Velocity
-3 1 2 -0 -2 -4 -5 5 -0 2 -1 3 4 2 2 -0 1 1 2 -3 4 -5
1 -5 -4 -5 -0 3 5 1 2 -1 0 0 -0 2 2 1 -1 -1 4 6 -1 6
-3 -1 0 4 0 -4 5 1 1 -1 -1 -1 1 -2 -2 -2 2 -4 -0 2 4 -2
-6 -1 6 -4 3 -1 7 4 -2 -2 3 1 -1 1 -6 -1 2 -2 -1 -1 -2 0
10 6 -2 -2 -1 4 -2 1 2 1 -0 2 2 2 -1 -0 -2 -3 -4 1 -1 0
10 -3 -8 -3 6 5 7 1 -0 -1 -4 -4 -5 0 3 4 0 -2 -3 3 -2 3
7 -5 -7 5 8 6 2 2 2 -0 -4 1 4 -1 -3 -1 -0 -2 1 -0 -2 3
7 13 -2 -0 3 7 -0 -3 4 4 4 -2 -2 -5 -4 -1 -2 -0 -0 -1 -3 -2
3 5 4 3 -14 7 3 3 0 -8 2 2 -0 2 3 3 -3 2 1 -3 2 -0
2 -0 -2 7 2 -1 0 13 -3 -2 -4 -3 -1 -5 6 4 -2 1 4 5 3 1
6 1 1 3 -0 3 5 -1 7 4 3 0 -2 -2 3 4 5 2 2 2 -1 -2
7 9 3 4 5 8 -3 -0 -2 4 1 -6 -0 -0 6 8 3 1 -1 1 -0 2
0 1 5 4 4 6 -2 -0 1 -1 -2 -1 0 1 5 8 1 -5 -4 -6 -1 6
3 2 1 0 3 4 -1 4 -2 1 -1 2 -1 1 8 9 -2 -1 -6 -1 -6 6
Height
3089 3094 3100 3104 3108 3113 3118 3124 3127 3132 3136 3140 3144 3148 3151 3154 3157 3161 3164 3166 3170 3171
3081 3086 3091 3096 3101 3105 3110 3116 3121 3125 3129 3133 3136 3140 3143 3146 3150 3153 3156 3159 3161 3164
3073 3078 3084 3089 3092 3097 3103 3108 3113 3117 3122 3125 3129 3132 3136 3139 3142 3145 3147 3150 3153 3155
3062 3069 3075 3081 3086 3091 3097 3101 3105 3111 3115 3118 3121 3125 3128 3131 3134 3137 3140 3142 3144 3147
3052 3059 3066 3072 3077 3084 3088 3093 3098 3102 3106 3110 3114 3117 3120 3124 3127 3129 3132 3135 3136 3139
3040 3046 3055 3063 3069 3074 3080 3084 3089 3093 3096 3101 3106 3109 3113 3117 3119 3122 3124 3126 3128 3131
3030 3037 3047 3053 3059 3065 3070 3075 3079 3083 3087 3091 3096 3099 3104 3107 3110 3113 3116 3118 3121 3123
3019 3028 3035 3043 3048 3054 3059 3064 3069 3073 3077 3080 3083 3087 3093 3097 3101 3104 3106 3108 3111 3113
3005 3015 3021 3029 3037 3042 3046 3052 3057 3061 3065 3069 3073 3077 3082 3086 3090 3094 3095 3098 3100 3103
2992 3000 3009 3016 3023 3028 3034 3040 3045 3051 3055 3058 3062 3068 3073 3076 3078 3081 3083 3087 3089 3091
2981 2988 2996 3003 3009 3016 3021 3026 3032 3038 3043 3047 3051 3056 3062 3065 3067 3068 3070 3074 3076 3078
2969 2975 2982 2990 2997 3004 3010 3015 3020 3025 3029 3034 3039 3044 3049 3052 3054 3056 3058 3063 3065 3066
2957 2964 2970 2976 2983 2990 2996 3002 3007 3011 3016 3021 3026 3031 3037 3040 3042 3043 3045 3050 3052 3054
2948 2953 2959 2965 2970 2976 2982 2988 2994 2999 3003 3008 3013 3017 3022 3026 3029 3031 3032 3037 3040 3042